Location: Centerville
(32.8776°N, 96.6203°W)
Time: 16:24:42
(UTC+00:00)

Meteor 2-3 Rocket - Pass Details

Date: 17 June 2021
Orbit: 842 x 885 km, 81.2° (Epoch: 26 July)

Event Time Altitude Azimuth Distance (km) Brightness Sun altitude
Exits shadow 08:44:01 45° 153° (SSE) 1,147 4.1 -25.0°
Maximum altitude 08:45:35 63° 95° (E) 943 4.0 -24.8°
Drops below altitude 10° 08:51:06 10° 15° (NNE) 2,469 7.0 -24.1°
Sets 08:53:31 0° 13° (NNE) 3,405 7.9 -23.8°
